Wind_Speed
15 13 14 12 13 15 15 16 15 16 18 17 16 14 15 12 13 13 15 15 13 10 11 9 6 6 7 14 13 16 8 10 11 14 10 7 12 8 8 8 7 8 7
14 13 14 14 13 13 13 13 15 16 17 16 16 14 14 15 15 16 17 17 16 13 13 14 12 11 10 9 11 15 11 13 12 11 14 8 9 13 9 10 10 8 9
15 15 16 16 15 14 13 15 15 15 16 16 15 15 16 17 17 17 17 18 19 17 16 16 16 16 15 14 15 13 13 13 12 13 13 15 11 13 12 13 15 14 11
19 19 16 18 18 17 17 15 15 15 15 16 15 15 16 16 17 18 19 19 19 18 18 17 16 15 15 15 16 16 15 15 14 15 13 14 17 15 14 15 16 19 19
21 18 18 17 17 17 19 22 19 18 15 15 16 16 17 18 18 17 18 18 19 21 22 21 19 19 20 19 16 17 18 16 17 17 16 16 19 17 16 20 18 20 21
22 21 18 21 20 20 20 21 24 25 20 21 23 23 23 23 21 21 20 20 20 20 20 21 20 21 20 19 19 18 20 18 18 19 19 18 22 23 20 20 22 21 21
21 21 21 21 21 22 20 21 23 26 26 26 24 25 27 28 27 28 27 25 22 22 20 20 21 20 21 23 22 19 20 21 20 20 21 20 22 24 24 23 26 22 23
18 17 17 17 18 20 22 22 20 21 23 24 25 25 26 26 27 29 30 28 28 27 28 25 23 22 20 21 21 21 20 22 22 22 22 21 23 25 29 29 28 28 27
15 14 13 13 14 16 19 20 19 20 20 20 20 21 23 23 26 28 31 33 34 34 31 26 26 24 22 22 23 25 24 24 23 23 24 25 24 26 29 30 30 31 32
15 13 11 10 12 14 15 18 20 22 22 22 21 22 23 24 24 26 29 28 29 28 26 24 25 25 24 23 24 24 25 24 26 27 28 29 28 28 28 30 31 33 33
15 13 11 11 12 14 15 16 18 20 21 21 22 22 23 22 21 20 20 20 21 24 22 24 22 21 22 24 24 26 28 29 28 32 33 34 35 35 34 34 33 36 36
15 13 10 11 14 16 16 17 18 19 19 20 21 22 20 18 16 16 15 17 20 23 24 25 24 22 24 25 29 30 31 35 37 37 35 36 38 41 42 41 41 40 39
18 16 13 13 17 16 16 16 17 18 21 21 21 19 19 16 13 11 12 16 17 17 21 26 27 27 28 28 28 28 30 32 32 33 35 36 36 36 42 44 44 45 46
20 19 15 13 16 17 17 17 17 19 19 19 21 18 20 20 19 16 14 13 12 12 13 15 18 20 22 22 24 27 29 32 35 37 39 39 38 36 35 39 43 45 47
24 22 17 14 13 14 16 17 17 17 18 17 18 18 18 20 19 21 19 17 17 16 15 15 15 17 20 24 28 29 28 28 28 30 31 33 34 36 37 39 40 42 43
27 24 20 17 13 12 13 17 17 17 18 17 17 17 17 17 15 15 14 13 12 13 14 15 17 20 21 20 19 20 22 24 25 26 26 27 28 29 32 33 33 32 31
31 28 23 18 14 13 13 14 18 17 18 17 16 16 15 14 13 12 12 13 13 14 16 16 16 16 14 14 15 16 17 18 18 18 19 21 21 21 22 24 27 30 29
27 25 20 14 9 11 14 16 17 17 17 16 15 14 14 13 13 14 14 15 15 16 16 14 13 11 10 12 13 15 16 16 19 17 17 17 17 17 16 15 14 15 17
19 14 13 10 8 11 14 19 17 15 15 15 14 14 14 15 15 16 17 17 16 17 15 13 12 12 12 11 14 15 16 18 16 15 16 15 16 17 18 16 14 10 7
29 25 29 29 31 28 22 19 20 14 13 12 12 14 12 13 14 15 16 17 17 16 13 14 15 14 15 14 14 15 15 15 13 13 13 15 13 13 13 13 14 13 11
30 29 21 34 37 33 23 19 19 16 16 13 12 12 12 13 13 11 11 12 13 14 15 15 14 13 14 15 16 17 16 15 14 14 13 13 12 13 11 10 11 11 8
24 23 23 17 17 17 13 17 17 15 15 12 12 11 12 12 12 12 12 13 12 13 15 16 15 14 15 16 17 17 16 16 15 16 16 13 12 12 10 11 12 9 10
22 22 22 18 13 13 14 16 17 18 16 13 14 14 13 15 14 16 15 15 14 15 16 17 16 16 17 17 17 15 14 14 14 15 16 15 14 13 13 11 11 9 6
23 21 22 22 9 12 15 17 17 16 15 15 13 16 17 16 15 14 14 15 10 9 10 10 11 11 13 11 13 13 13 12 10 11 12 11 10 14 16 14 10 10 12
22 20 23 21 10 20 19 16 16 13 12 14 18 17 16 15 14 16 16 14 14 11 11 11 11 10 9 10 10 12 11 10 13 13 16 17 14 15 16 13 11 12 12
19 20 9 9 14 21 19 18 15 14 13 11 5 7 10 9 10 14 16 15 14 12 12 11 11 11 10 10 10 9 10 11 13 14 15 15 17 15 15 14 12 12 11
Wind_Direction
224 224 231 220 222 229 228 236 240 241 244 253 254 252 253 256 259 259 261 263 268 258 274 282 279 275 252 266 282 270 227 237 239 253 263 259 288 286 289 294 276 280 282
229 231 237 236 235 246 252 243 247 252 255 259 260 264 262 264 264 262 255 262 267 269 269 277 281 284 281 278 267 271 278 249 254 271 279 277 293 292 287 285 284 279 282
244 244 246 249 249 252 252 246 251 256 260 261 264 269 270 269 264 258 262 261 270 274 271 274 278 286 287 287 279 274 271 258 263 267 268 278 274 266 276 280 284 285 269
254 253 252 261 255 257 263 265 259 256 258 263 264 262 263 266 262 263 264 266 268 270 272 271 273 273 281 291 286 273 272 270 274 277 276 272 282 264 274 279 279 286 288
257 258 264 265 258 256 264 264 271 266 254 251 257 263 263 262 262 265 268 266 264 267 272 273 274 274 274 268 287 272 262 267 273 278 279 273 277 280 276 273 287 285 289
248 256 259 260 256 256 267 266 255 263 268 263 261 264 263 261 266 265 270 271 270 264 266 270 277 275 278 271 273 278 270 266 265 267 272 274 276 276 277 283 281 285 284
244 250 253 257 262 262 260 263 262 258 261 261 263 262 261 261 262 266 264 272 262 267 268 266 266 268 271 270 264 268 268 274 274 269 268 269 272 282 280 271 278 279 281
231 237 245 251 253 257 259 262 258 254 253 256 263 265 262 262 262 262 263 266 261 267 273 267 264 261 265 274 267 264 264 269 272 271 270 271 271 270 274 278 278 280 279
223 223 230 237 250 257 260 256 251 250 251 254 255 260 264 267 267 263 262 262 259 260 265 260 264 265 262 263 270 277 276 271 271 273 273 270 269 271 272 272 277 277 280
212 217 229 253 267 268 266 265 258 254 252 254 259 263 266 270 275 273 269 262 257 255 250 256 261 266 269 268 270 275 278 276 275 277 277 278 277 273 266 266 270 272 275
216 226 243 268 281 282 274 271 268 263 262 259 259 261 265 272 277 266 264 265 256 244 245 252 252 259 261 268 271 270 272 273 275 280 278 273 273 273 272 272 270 271 273
222 230 249 277 294 292 284 269 268 267 263 260 262 265 268 275 270 263 263 260 250 250 248 251 257 262 271 267 271 274 273 275 279 279 277 280 278 269 267 267 267 268 269
225 235 247 267 287 291 280 276 264 260 261 261 260 257 253 258 261 268 265 265 263 261 256 255 258 263 273 276 276 278 276 278 281 279 280 281 282 278 266 265 265 267 269
228 237 247 266 288 292 287 278 268 259 256 252 262 262 249 250 256 263 270 271 269 263 261 260 262 268 274 277 281 283 283 282 281 282 281 281 280 278 275 270 269 270 272
229 233 234 250 280 294 299 289 275 266 262 262 260 260 260 254 257 261 263 263 264 265 264 264 266 273 281 286 288 289 290 291 290 289 288 285 281 277 274 271 270 271 272
229 231 234 246 266 294 305 295 281 269 266 263 263 263 261 261 261 261 262 261 262 263 267 275 283 287 287 289 292 296 298 298 296 296 295 292 289 286 282 277 279 278 275
225 227 231 245 261 285 304 295 286 275 264 258 259 260 257 253 253 253 257 260 264 271 278 279 279 284 289 297 310 315 313 315 316 318 315 305 300 301 302 297 281 277 275
216 223 225 228 256 290 300 302 287 269 261 256 250 248 248 248 248 251 255 260 266 273 279 284 287 288 293 297 310 320 324 324 328 318 330 340 342 331 321 322 315 292 277
204 218 217 226 261 290 297 294 281 267 257 249 243 241 242 244 250 254 257 260 265 271 264 272 289 296 303 302 314 317 319 325 326 330 329 333 343 354 358 351 339 332 322
230 244 282 272 276 274 273 279 273 267 253 245 235 237 236 243 252 256 254 255 259 266 270 279 285 291 298 302 313 311 316 322 325 328 327 332 339 352 359 1 355 347 4
238 242 238 244 262 261 245 251 251 256 255 233 229 229 225 240 252 255 257 261 259 268 273 276 277 286 287 288 300 304 303 313 309 328 322 328 329 337 337 6 24 27 345
217 226 234 225 244 258 229 236 241 246 241 240 243 231 236 246 260 269 265 263 264 270 275 276 277 277 279 284 290 289 292 302 292 304 308 318 319 315 324 327 358 13 359
224 222 217 217 227 266 247 233 230 236 242 231 243 248 244 253 258 262 259 262 262 268 271 274 273 270 275 284 284 284 286 291 289 295 297 295 302 303 308 319 308 297 292
202 212 230 221 169 266 264 232 238 233 232 239 246 248 250 247 251 253 257 269 260 258 271 276 278 278 281 284 284 286 286 285 292 305 310 317 305 302 303 291 276 263 264
204 223 249 216 179 252 270 238 228 243 243 249 240 248 248 248 249 251 255 259 262 258 265 270 276 272 272 279 286 289 297 311 302 305 299 304 301 292 293 295 293 287 280
203 231 242 206 184 246 249 227 219 219 267 284 288 306 302 260 261 275 268 261 266 264 264 273 279 275 277 278 271 285 296 292 293 292 290 290 292 293 286 285 282 278 267
Height
3169 3171 3174 3176 3179 3181 3183 3186 3187 3188 3188 3189 3196 3199 3198 3195 3198 3201 3203 3203 3203 3205 3207 3207 3209 3210 3210 3209 3209 3209 3211 3213 3214 3214 3214 3213 3212 3212 3211 3212 3213 3213 3213
3167 3169 3172 3174 3175 3178 3180 3182 3184 3186 3186 3186 3186 3187 3189 3192 3195 3198 3200 3200 3201 3202 3204 3205 3206 3207 3208 3207 3208 3207 3208 3210 3210 3211 3209 3210 3210 3207 3208 3208 3209 3210 3210
3164 3166 3169 3171 3172 3174 3176 3178 3179 3182 3183 3184 3185 3187 3189 3191 3192 3194 3196 3198 3199 3199 3201 3201 3203 3203 3204 3205 3205 3205 3206 3206 3206 3207 3206 3204 3206 3205 3205 3206 3206 3206 3208
3160 3162 3165 3167 3169 3172 3173 3174 3176 3179 3181 3182 3183 3184 3185 3187 3189 3191 3192 3194 3195 3197 3197 3198 3199 3199 3200 3201 3201 3201 3201 3201 3202 3201 3202 3202 3201 3202 3203 3203 3203 3202 3202
3156 3158 3160 3163 3165 3168 3171 3171 3173 3175 3177 3179 3180 3181 3182 3183 3184 3185 3187 3188 3190 3192 3192 3193 3194 3195 3195 3196 3196 3196 3196 3196 3197 3197 3198 3198 3197 3199 3199 3198 3199 3198 3197
3152 3154 3157 3158 3161 3164 3165 3168 3170 3172 3173 3174 3175 3177 3177 3178 3180 3181 3182 3183 3184 3185 3187 3188 3189 3190 3190 3191 3191 3192 3191 3191 3193 3193 3194 3194 3194 3194 3196 3193 3193 3193 3192
3148 3150 3153 3155 3158 3160 3162 3163 3165 3166 3168 3169 3170 3171 3170 3172 3175 3175 3177 3177 3178 3180 3181 3183 3183 3185 3185 3186 3187 3188 3188 3187 3187 3189 3188 3189 3188 3187 3186 3187 3186 3187 3187
3144 3146 3149 3152 3153 3155 3157 3159 3160 3160 3161 3162 3163 3163 3165 3166 3168 3169 3170 3170 3171 3172 3174 3176 3177 3178 3179 3180 3180 3181 3182 3182 3181 3182 3182 3183 3183 3182 3180 3180 3179 3178 3178
3140 3143 3145 3147 3149 3150 3152 3153 3154 3154 3155 3157 3158 3158 3158 3160 3160 3161 3161 3161 3162 3165 3167 3168 3169 3171 3173 3174 3173 3173 3174 3174 3174 3175 3174 3175 3175 3174 3173 3172 3171 3171 3169
3138 3141 3143 3144 3145 3146 3146 3147 3148 3150 3151 3152 3153 3153 3153 3153 3153 3153 3153 3154 3155 3158 3160 3163 3164 3164 3165 3167 3167 3168 3166 3167 3166 3166 3165 3165 3165 3166 3165 3164 3164 3162 3162
3135 3138 3140 3142 3143 3143 3143 3143 3143 3143 3145 3146 3147 3148 3147 3148 3148 3147 3147 3147 3149 3151 3154 3156 3156 3158 3159 3161 3161 3161 3160 3159 3159 3157 3157 3157 3156 3155 3155 3155 3154 3152 3151
3131 3134 3136 3138 3139 3139 3139 3138 3138 3138 3139 3140 3141 3141 3143 3142 3142 3143 3143 3143 3144 3145 3148 3148 3150 3153 3154 3155 3154 3152 3151 3150 3149 3148 3146 3146 3145 3144 3143 3142 3141 3142 3141
3127 3130 3133 3134 3134 3135 3135 3134 3134 3134 3134 3135 3135 3136 3138 3139 3139 3139 3139 3139 3140 3140 3141 3142 3145 3147 3147 3147 3145 3144 3142 3140 3139 3138 3136 3135 3132 3129 3128 3129 3129 3128 3127
3123 3126 3129 3130 3131 3131 3130 3130 3130 3129 3130 3131 3130 3132 3133 3134 3135 3136 3136 3136 3137 3137 3137 3138 3139 3139 3139 3139 3137 3136 3135 3133 3130 3127 3125 3123 3121 3119 3117 3116 3115 3114 3113
3117 3119 3122 3124 3126 3125 3125 3126 3126 3126 3125 3125 3126 3127 3127 3128 3130 3130 3131 3132 3132 3133 3134 3134 3135 3135 3134 3133 3131 3129 3126 3123 3121 3118 3115 3112 3109 3107 3105 3104 3103 3102 3101
3110 3113 3116 3118 3119 3120 3120 3120 3121 3121 3121 3121 3121 3122 3123 3123 3124 3125 3126 3127 3128 3129 3129 3130 3129 3129 3128 3126 3124 3122 3120 3117 3114 3111 3108 3104 3101 3098 3096 3094 3092 3091 3090
3103 3106 3109 3111 3113 3113 3114 3116 3115 3115 3116 3116 3116 3118 3119 3120 3121 3122 3123 3124 3124 3124 3124 3125 3123 3123 3122 3121 3119 3117 3114 3111 3108 3104 3101 3098 3095 3092 3089 3086 3084 3083 3082
3101 3104 3104 3105 3108 3109 3108 3110 3110 3110 3110 3111 3112 3114 3115 3116 3117 3118 3119 3119 3120 3119 3119 3119 3118 3118 3117 3116 3115 3113 3111 3108 3105 3102 3099 3096 3092 3088 3085 3082 3079 3078 3076
3098 3102 3102 3102 3103 3103 3105 3104 3106 3105 3105 3106 3108 3109 3110 3112 3113 3114 3115 3115 3115 3115 3115 3115 3115 3114 3113 3113 3111 3109 3107 3104 3101 3099 3097 3094 3091 3088 3085 3082 3079 3077 3076
3093 3094 3094 3096 3096 3098 3098 3099 3099 3100 3101 3101 3102 3104 3106 3107 3108 3109 3110 3111 3111 3110 3110 3110 3110 3110 3109 3107 3107 3106 3103 3101 3099 3097 3095 3092 3090 3088 3085 3083 3081 3079 3078
3081 3084 3085 3089 3088 3088 3090 3091 3094 3094 3096 3097 3098 3100 3102 3103 3104 3105 3106 3106 3106 3106 3106 3106 3105 3105 3105 3104 3103 3101 3099 3098 3097 3095 3093 3092 3090 3087 3085 3083 3081 3079 3079
3074 3077 3080 3082 3083 3083 3085 3087 3088 3090 3091 3092 3094 3097 3098 3099 3100 3101 3101 3101 3100 3101 3102 3101 3100 3100 3100 3100 3099 3098 3096 3094 3093 3092 3090 3089 3087 3086 3085 3083 3082 3080 3079
3069 3073 3075 3078 3079 3079 3082 3083 3085 3086 3087 3088 3090 3092 3094 3094 3095 3096 3097 3096 3097 3097 3097 3096 3096 3095 3094 3095 3094 3093 3093 3091 3090 3088 3087 3086 3084 3083 3082 3081 3080 3080 3080
3065 3069 3072 3064 3071 3075 3077 3079 3082 3083 3085 3086 3085 3086 3088 3090 3090 3091 3091 3091 3092 3092 3092 3092 3091 3090 3089 3090 3090 3089 3088 3087 3085 3084 3083 3082 3081 3080 3079 3079 3079 3079 3079
3063 3065 3066 3066 3064 3071 3074 3076 3077 3079 3081 3083 3081 3081 3084 3084 3086 3086 3087 3087 3087 3088 3088 3087 3087 3086 3085 3085 3085 3085 3084 3083 3082 3081 3080 3079 3079 3078 3077 3076 3075 3075 3074
3059 3059 3061 3061 3062 3068 3071 3074 3076 3079 3078 3078 3077 3077 3079 3081 3083 3083 3082 3082 3082 3083 3083 3083 3082 3081 3081 3080 3080 3080 3080 3080 3079 3078 3077 3076 3075 3074 3073 3072 3072 3071 3071